Tiempo cada hora Lautaro

Hoy, 26 Octubre, Lunes

Tiempo Temperatura Precipitaciones Viento Presión Humedad
00:00 +3°C° 0 mm 0 mps 742 mmHg 94%
01:00 +2°C° 0 mm 0 mps 742 mmHg 94%
02:00 +2°C° 0 mm 0 mps 741 mmHg 94%
03:00 +2°C° 0 mm 0 mps 741 mmHg 93%
04:00 +2°C° 0 mm 0 mps 740 mmHg 93%
05:00 +4°C° 0 mm 0 mps 740 mmHg 87%
06:00 +6°C° 0 mm 0 mps 740 mmHg 80%
07:00 +8°C° 0 mm 0 mps 741 mmHg 72%
08:00 +10°C° 0 mm 0 mps 741 mmHg 66%
09:00 +13°C° 0 mm 1 mps 740 mmHg 60%
10:00 +15°C° 0 mm 1 mps 740 mmHg 54%
11:00 +16°C° 0 mm 1 mps 738 mmHg 54%
12:00 +16°C° 0 mm 1 mps 738 mmHg 52%
13:00 +16°C° 0 mm 1 mps 738 mmHg 50%
14:00 +16°C° 0 mm 1 mps 738 mmHg 51%
15:00 +16°C° 0 mm 1 mps 738 mmHg 53%
16:00 +16°C° 0 mm 1 mps 738 mmHg 56%
17:00 +13°C° 0 mm 2 mps 737 mmHg 60%
18:00 +12°C° 0 mm 1 mps 737 mmHg 67%
19:00 +10°C° 0 mm 1 mps 737 mmHg 74%
20:00 +14°C° 0.3 mm 1 mps 738 mmHg 64%
21:00 +10°C° 0.3 mm 2 mps 738 mmHg 79%
22:00 +8°C° 0.3 mm 2 mps 737 mmHg 94%
23:00 +8°C° 1 mm 2 mps 737 mmHg 95%

Mañana, 27 Octubre, Martes

Tiempo Temperatura Precipitaciones Viento Presión Humedad
00:00 +8°C° 1 mm 2 mps 737 mmHg 96%
01:00 +9°C° 1 mm 1 mps 737 mmHg 98%
02:00 +8°C° 0.8 mm 1 mps 737 mmHg 97%
03:00 +7°C° 0.8 mm 2 mps 737 mmHg 97%
04:00 +7°C° 0.8 mm 2 mps 737 mmHg 97%
05:00 +8°C° 0.1 mm 1 mps 737 mmHg 95%
06:00 +9°C° 0.1 mm 1 mps 738 mmHg 92%
07:00 +8°C° 0.1 mm 0 mps 738 mmHg 90%
08:00 +10°C° 0.1 mm 1 mps 738 mmHg 80%
09:00 +12°C° 0.1 mm 2 mps 739 mmHg 70%
10:00 +12°C° 0.1 mm 3 mps 739 mmHg 60%
11:00 +12°C° 0.5 mm 3 mps 739 mmHg 65%
12:00 +12°C° 0.5 mm 3 mps 739 mmHg 70%
13:00 +12°C° 0.5 mm 4 mps 739 mmHg 74%
14:00 +12°C° 0.3 mm 4 mps 739 mmHg 71%
15:00 +11°C° 0.3 mm 4 mps 739 mmHg 68%
16:00 +11°C° 0.3 mm 4 mps 739 mmHg 64%
17:00 +8°C° 0 mm 3 mps 741 mmHg 80%
18:00 +6°C° 0 mm 2 mps 741 mmHg 82%
19:00 +6°C° 0 mm 1 mps 742 mmHg 84%
20:00 +5°C° 0 mm 1 mps 743 mmHg 87%
21:00 +4°C° 0 mm 1 mps 743 mmHg 90%
22:00 +2°C° 0 mm 0 mps 744 mmHg 93%
23:00 +2°C° 0 mm 0 mps 744 mmHg 94%

Pasado mañana, 28 Octubre, Miércoles

Tiempo Temperatura Precipitaciones Viento Presión Humedad
00:00 +3°C° 0 mm 1 mps 744 mmHg 94%
01:00 +3°C° 0 mm 1 mps 745 mmHg 95%
02:00 +2°C° 0 mm 1 mps 745 mmHg 95%
03:00 +1°C° 0 mm 0 mps 745 mmHg 95%
04:00 +1°C° 0 mm 0 mps 746 mmHg 95%
05:00 +3°C° 0 mm 0 mps 746 mmHg 92%
06:00 +5°C° 0 mm 1 mps 746 mmHg 88%
07:00 +7°C° 0 mm 1 mps 746 mmHg 84%
08:00 +9°C° 0 mm 1 mps 746 mmHg 73%
09:00 +11°C° 0 mm 1 mps 746 mmHg 62%
10:00 +14°C° 0 mm 2 mps 746 mmHg 51%
11:00 +14°C° 0 mm 2 mps 746 mmHg 51%
12:00 +14°C° 0 mm 2 mps 746 mmHg 51%
13:00 +14°C° 0 mm 3 mps 746 mmHg 51%
14:00 +14°C° 0 mm 3 mps 746 mmHg 54%
15:00 +13°C° 0 mm 3 mps 745 mmHg 58%
16:00 +14°C° 0 mm 2 mps 745 mmHg 61%
17:00 +12°C° 0 mm 2 mps 745 mmHg 70%
18:00 +9°C° 0 mm 2 mps 746 mmHg 80%
19:00 +7°C° 0 mm 2 mps 746 mmHg 89%
20:00 +7°C° 0 mm 1 mps 746 mmHg 92%
21:00 +6°C° 0 mm 1 mps 746 mmHg 95%
22:00 +5°C° 0 mm 1 mps 746 mmHg 98%
23:00 +5°C° 0 mm 1 mps 745 mmHg 98%

29 Octubre, Jueves

Tiempo Temperatura Precipitaciones Viento Presión Humedad
00:00 +4°C° 0 mm 1 mps 745 mmHg 98%
01:00 +3°C° 0 mm 0 mps 744 mmHg 98%
02:00 +4°C° 0 mm 1 mps 744 mmHg 98%
03:00 +4°C° 0 mm 1 mps 744 mmHg 98%
04:00 +4°C° 0 mm 1 mps 743 mmHg 98%
05:00 +5°C° 0 mm 1 mps 743 mmHg 95%
06:00 +6°C° 0 mm 1 mps 743 mmHg 92%
07:00 +6°C° 0 mm 2 mps 743 mmHg 89%
08:00 +9°C° 0 mm 2 mps 742 mmHg 79%
09:00 +12°C° 0 mm 2 mps 742 mmHg 69%
10:00 +14°C° 0 mm 3 mps 742 mmHg 59%
11:00 +16°C° 0 mm 3 mps 741 mmHg 55%
12:00 +17°C° 0 mm 4 mps 741 mmHg 52%
13:00 +19°C° 0 mm 4 mps 740 mmHg 49%
14:00 +18°C° 0 mm 4 mps 740 mmHg 52%
15:00 +18°C° 0 mm 4 mps 740 mmHg 55%
16:00 +17°C° 0 mm 4 mps 739 mmHg 58%
17:00 +14°C° 0 mm 3 mps 739 mmHg 68%
18:00 +12°C° 0 mm 2 mps 739 mmHg 78%
19:00 +9°C° 0 mm 1 mps 739 mmHg 88%
20:00 +8°C° 0 mm 1 mps 740 mmHg 91%
21:00 +7°C° 0 mm 1 mps 740 mmHg 93%
22:00 +7°C° 0 mm 1 mps 740 mmHg 96%
23:00 +6°C° 0 mm 1 mps 739 mmHg 96%

30 Octubre, Viernes

Tiempo Temperatura Precipitaciones Viento Presión Humedad
00:00 +6°C° 0 mm 1 mps 739 mmHg 97%
01:00 +5°C° 0 mm 1 mps 739 mmHg 97%
02:00 +5°C° 0 mm 1 mps 739 mmHg 96%
03:00 +5°C° 0 mm 1 mps 739 mmHg 96%
04:00 +4°C° 0 mm 1 mps 739 mmHg 96%
05:00 +6°C° 0 mm 1 mps 739 mmHg 91%
06:00 +8°C° 0 mm 1 mps 740 mmHg 86%
07:00 +9°C° 0 mm 1 mps 740 mmHg 81%
08:00 +12°C° 0 mm 1 mps 740 mmHg 73%
09:00 +15°C° 0 mm 1 mps 740 mmHg 64%
10:00 +18°C° 0 mm 2 mps 740 mmHg 55%
11:00 +19°C° 0 mm 2 mps 740 mmHg 53%
12:00 +20°C° 0 mm 2 mps 740 mmHg 51%
13:00 +23°C° 0 mm 2 mps 740 mmHg 49%
14:00 +21°C° 0 mm 2 mps 740 mmHg 53%
15:00 +20°C° 0 mm 3 mps 740 mmHg 57%
16:00 +19°C° 0 mm 3 mps 740 mmHg 61%
17:00 +16°C° 0 mm 3 mps 740 mmHg 71%
18:00 +13°C° 0 mm 2 mps 740 mmHg 81%
19:00 +9°C° 0 mm 2 mps 741 mmHg 90%
20:00 +9°C° 0 mm 1 mps 741 mmHg 93%
21:00 +8°C° 0 mm 1 mps 741 mmHg 95%
22:00 +7°C° 0 mm 1 mps 741 mmHg 97%
23:00 +7°C° 0 mm 1 mps 741 mmHg 97%

31 Octubre, Sábado

Tiempo Temperatura Precipitaciones Viento Presión Humedad
00:00 +7°C° 0 mm 1 mps 741 mmHg 98%
01:00 +6°C° 0 mm 0 mps 741 mmHg 98%
Mostrar más

Necesitamos Su Consentimiento

Meteoprog y nuestros Proveedores de Servicios pueden almacenar y acceder a sus datos personales como cookies, identificadores de dispositivo u otras tecnologías similares de su dispositivo y procesar dichos datos para personalizar contenido y anuncios, además de ofrecer funciones de redes sociales y analizar el tráfico.

  • Almacenar y/o acceder a información en su dispositivo

    Se puede almacenar o acceder a cookies, identificadores de dispositivo u otra información de su dispositivo para los fines anteriormente indicados.

  • Anuncios y contenido personalizados, medición de anuncios y contenido, percepciones del público, y desarrollo de productos

    Los anuncios y el contenido pueden personalizarse en base a su perfil. Se pueden añadir más datos para personalizar mejor los anuncios y contenidos. Se puede medir el rendimiento de los anuncios y contenidos. Se puede obtener la percepción sobre el público que ha visto los anuncios y contenidos. Dichos datos pueden usarse para desarrollar o mejorar la experiencia del usuario, sistemas y software.

Al hacer clic en ‘Estoy De Acuerdo’ usted permitirá el uso de las cookies, identificadores de dispositivo, balizas web u otras tecnologías similares indicadas. Su configuración puede cambiarse desde el navegador de su dispositivo.

Para ciertos fines, los intereses legítimos pueden ser considerados por encima del consentimiento. Puede leer más sobre ello en nuestra Política de Privacidad y Cookies.